EW7771 Weather Reports


time (UTC)temp
C
wind
direction
speed
KPH
gust
KPH
rain 1hr
cm
rain 24hr
cm
rain mn
cm
humidity
%
barometer
mb
20260509194701 20 355 0.0 9.7 0.00 0.00 0.00 61 1018.4
20260509194153 20 330 0.0 9.7 0.00 0.00 0.00 57 1018.3
20260509193646 20 273 0.0 1.6 0.00 0.00 0.00 55 1018.3
20260509193140 20 125 0.0 3.2 0.00 0.00 0.00 59 1018.4
20260509192636 20 164 0.0 3.2 0.00 0.00 0.00 57 1018.4
20260509192129 20 134 0.0 9.7 0.00 0.00 0.00 61 1018.4
20260509191622 20 163 0.0 9.7 0.00 0.00 0.00 60 1018.5
20260509191116 19 103 0.0 0.0 0.00 0.00 0.00 55 1018.5
20260509190613 19 312 0.0 0.0 0.00 0.00 0.00 59 1018.6
20260509190105 19 305 0.0 1.6 0.00 0.00 0.00 57 1018.6
20260509185555 19 153 0.0 1.6 0.00 0.00 0.00 55 1018.7
20260509185322 19 135 0.0 0.0 0.00 0.00 0.00 57 1018.9
20260509184548 19 319 0.0 0.0 0.00 0.00 0.00 58 1018.9
20260509184259 19 289 0.0 0.0 0.00 0.00 0.00 61 1019.0
20260509183535 18 84 0.0 0.0 0.00 0.00 0.00 56 1019.0
20260509183028 18 309 0.0 0.0 0.00 0.00 0.00 63 1019.1
20260509182747 18 307 0.0 0.0 0.00 0.00 0.00 61 1019.1
20260509182500 18 298 0.0 0.0 0.00 0.00 0.00 59 1019.0
20260509181510 18 195 0.0 0.0 0.00 0.00 0.00 59 1019.0
20260509181004 18 85 0.0 0.0 0.00 0.00 0.00 56 1019.0
20260509180500 18 86 0.0 0.0 0.00 0.00 0.00 59 1019.0
20260509180226 18 165 0.0 0.0 0.00 0.00 0.00 63 1019.1
20260509175707 17 296 0.0 1.6 0.00 0.00 0.00 64 1019.1
20260509175200 17 321 0.0 1.6 0.00 0.00 0.00 63 1019.1
20260509174437 17 184 0.0 1.6 0.00 0.00 0.00 61 1019.1
20260509174151 17 203 0.0 0.0 0.00 0.00 0.00 65 1019.0
20260509173426 16 319 0.0 0.0 0.00 0.00 0.00 65 1019.0
20260509172917 16 348 0.0 0.0 0.00 0.00 0.00 67 1019.0
20260509172412 16 15 0.0 0.0 0.00 0.00 0.00 70 1019.1
20260509172125 15 348 0.0 0.0 0.00 0.00 0.00 76 1019.1
20260509171357 15 0 0.0 0.0 0.00 0.00 0.00 79 1019.3
20260509170852 14 214 0.0 0.0 0.00 0.00 0.00 76 1019.3
20260509170344 13 304 0.0 0.0 0.00 0.00 0.00 78 1019.4
20260509165840 13 304 0.0 0.0 0.00 0.00 0.00 80 1019.4
20260509165335 12 304 0.0 0.0 0.00 0.00 0.00 81 1019.5
20260509164827 12 304 0.0 0.0 0.00 0.00 0.00 84 1019.6
20260509164325 11 302 0.0 0.0 0.00 0.00 0.00 84 1019.6
20260509163816 11 246 0.0 0.0 0.00 0.00 0.00 91 1019.7
20260509163310 10 246 0.0 0.0 0.00 0.00 0.00 88 1019.8
20260509162802 10 246 0.0 0.0 0.00 0.00 0.00 93 1019.9
20260509162300 10 246 0.0 0.0 0.00 0.00 0.00 94 1020.0
20260509161752 10 246 0.0 0.0 0.00 0.00 0.00 95 1020.1
20260509161502 10 246 0.0 0.0 0.00 0.00 0.00 95 1020.2
20260509161001 9 246 0.0 0.0 0.00 0.00 0.00 95 1020.3
20260509160236 9 246 0.0 0.0 0.00 0.00 0.00 95 1020.3
20260509155952 8 246 0.0 0.0 0.00 0.00 0.00 95 1020.4
20260509155219 8 246 0.0 0.0 0.00 0.00 0.00 96 1020.4
20260509154715 8 254 0.0 1.6 0.00 0.00 0.00 96 1020.3
20260509154212 8 265 0.0 1.6 0.00 0.00 0.00 96 1020.5
20260509153925 7 333 0.0 0.0 0.00 0.00 0.00 96 1020.6
20260509153415 7 333 0.0 0.0 0.00 0.00 0.00 96 1020.6
20260509152150 7 333 0.0 0.0 0.00 0.00 0.00 96 1020.6
20260509151642 7 333 0.0 0.0 0.00 0.00 0.00 96 1020.8
20260509151140 7 333 0.0 4.8 0.00 0.00 0.00 96 1020.9
20260509150639 7 333 0.0 4.8 0.00 0.00 0.00 96 1021.0
20260509150139 6 168 0.0 1.6 0.00 0.00 0.00 96 1021.1
20260509145639 6 202 0.0 4.8 0.00 0.00 0.00 96 1021.0
20260509145141 6 175 0.0 4.8 0.00 0.00 0.00 96 1021.0
20260509144639 6 78 0.0 1.6 0.00 0.00 0.00 96 1021.1
20260509144140 6 40 0.0 1.6 0.00 0.00 0.00 95 1021.1
20260509143905 6 332 0.0 0.0 0.00 0.00 0.00 95 1021.2
20260509143142 6 332 0.0 0.0 0.00 0.00 0.00 95 1021.3
20260509142639 6 332 0.0 0.0 0.00 0.00 0.00 95 1021.3
20260509142140 6 332 0.0 0.0 0.00 0.00 0.00 95 1021.4
20260509141640 6 332 0.0 0.0 0.00 0.00 0.00 95 1021.4
20260509141142 6 332 0.0 0.0 0.00 0.00 0.00 95 1021.5
20260509140639 6 332 0.0 0.0 0.00 0.00 0.00 95 1021.5
20260509140139 5 332 0.0 0.0 0.00 0.00 0.00 94 1021.5
20260509135639 5 332 0.0 0.0 0.00 0.00 0.00 94 1021.6
20260509135138 5 119 0.0 0.0 0.00 0.00 0.00 94 1021.6
20260509134639 5 132 0.0 0.0 0.00 0.00 0.00 94 1021.6
20260509134407 5 132 0.0 0.0 0.00 0.00 0.00 94 1021.6
20260509133640 6 132 0.0 0.0 0.00 0.00 0.00 94 1021.5
20260509133413 6 132 0.0 0.0 0.00 0.00 0.00 94 1021.4
20260509132642 6 132 0.0 0.0 0.00 0.00 0.00 94 1021.4
20260509132140 6 132 0.0 0.0 0.00 0.00 0.00 93 1021.4
20260509131639 6 132 0.0 0.0 0.00 0.00 0.00 93 1021.3
20260509131137 6 132 0.0 0.0 0.00 0.00 0.00 93 1021.3
20260509131128 6 132 0.0 0.0 0.00 0.00 0.00 93 1021.2
20260509130134 6 132 0.0 0.0 0.00 0.00 0.00 93 1021.2
20260509125855 6 132 0.0 0.0 0.00 0.00 0.00 93 1021.2
20260509125135 6 132 0.0 0.0 0.00 0.00 0.00 93 1021.1
20260509124632 6 132 0.0 0.0 0.00 0.00 0.00 92 1021.1
20260509124133 6 132 0.0 0.0 0.00 0.00 0.00 92 1021.1
20260509123640 6 132 0.0 0.0 0.00 0.00 0.00 92 1021.0
20260509123137 6 132 0.0 0.0 0.00 0.00 0.00 92 1021.0
20260509122631 6 132 0.0 0.0 0.00 0.00 0.00 92 1021.1
20260509122356 7 132 0.0 0.0 0.00 0.00 0.00 92 1021.1
20260509121625 7 132 0.0 0.0 0.00 0.00 0.00 92 1021.1
20260509121121 7 132 0.0 0.0 0.00 0.00 0.00 92 1021.1
20260509120614 7 132 0.0 0.0 0.00 0.00 0.00 92 1021.1
20260509120107 7 132 0.0 0.0 0.00 0.00 0.00 92 1021.0
20260509115601 7 132 0.0 0.0 0.00 0.00 0.00 91 1021.0
20260509115315 7 132 0.0 0.0 0.00 0.00 0.00 91 1021.0
20260509114549 7 132 0.0 0.0 0.00 0.00 0.00 91 1020.9
20260509114503 8 132 0.0 0.0 0.00 0.00 0.00 92 1021.0
20260509114139 8 132 0.0 0.0 0.00 0.00 0.00 91 1021.0
20260509113256 8 132 0.0 0.0 0.00 0.00 0.00 92 1021.1
20260509112526 8 132 0.0 0.0 0.00 0.00 0.00 92 1021.2
20260509112019 8 132 0.0 0.0 0.00 0.00 0.00 92 1021.2
20260509111513 8 132 0.0 0.0 0.00 0.00 0.00 92 1021.2
20260509111415 8 211 0.0 0.0 0.00 0.00 0.00 92 1021.2
20260509110502 8 211 0.0 0.0 0.00 0.00 0.00 93 1021.3
20260509105955 8 211 0.0 0.0 0.00 0.00 0.00 93 1021.3
20260509105449 8 211 0.0 0.0 0.00 0.00 0.00 93 1021.3
20260509104944 8 211 0.0 0.0 0.00 0.00 0.00 93 1021.4
20260509104438 8 211 0.0 0.0 0.00 0.00 0.00 93 1021.4
20260509103931 8 211 0.0 0.0 0.00 0.00 0.00 93 1021.4
20260509103425 8 211 0.0 0.0 0.00 0.00 0.00 93 1021.5
20260509102921 8 211 0.0 0.0 0.00 0.00 0.00 94 1021.5
20260509102414 8 211 0.0 0.0 0.00 0.00 0.00 94 1021.5
20260509101907 8 211 0.0 0.0 0.00 0.00 0.00 94 1021.6
20260509101402 8 211 0.0 0.0 0.00 0.00 0.00 94 1021.6
20260509100856 8 211 0.0 0.0 0.00 0.00 0.00 94 1021.7
20260509100623 8 211 0.0 0.0 0.00 0.00 0.00 93 1021.7
20260509095843 8 211 0.0 0.0 0.00 0.00 0.00 93 1021.8
20260509095340 8 211 0.0 0.0 0.00 0.00 0.00 93 1021.8
20260509094840 8 211 0.0 0.0 0.00 0.00 0.00 93 1021.8
20260509094341 8 211 0.0 0.0 0.00 0.00 0.00 93 1021.9
20260509093837 8 211 0.0 0.0 0.00 0.00 0.00 93 1021.9
20260509093334 8 211 0.0 0.0 0.00 0.00 0.00 93 1021.9
20260509093102 8 211 0.0 0.0 0.00 0.00 0.00 93 1021.9
20260509092330 8 211 0.0 0.0 0.00 0.00 0.00 93 1021.9
20260509091831 8 211 0.0 0.0 0.00 0.00 0.00 93 1021.9
20260509091335 8 211 0.0 0.0 0.00 0.00 0.00 92 1021.9
20260509090830 8 211 0.0 0.0 0.00 0.00 0.00 92 1022.0
20260509090331 8 211 0.0 0.0 0.00 0.00 0.00 92 1021.9
20260509085831 8 211 0.0 0.0 0.00 0.00 0.00 92 1021.9
20260509085328 8 211 0.0 0.0 0.00 0.00 0.00 92 1022.0
20260509084825 8 211 0.0 0.0 0.00 0.00 0.00 92 1021.9
20260509084322 8 211 0.0 0.0 0.00 0.00 0.00 92 1021.9
20260509083823 8 211 0.0 0.0 0.00 0.00 0.00 92 1022.0
20260509083317 8 211 0.0 0.0 0.00 0.00 0.00 91 1022.0
20260509082818 8 211 0.0 0.0 0.00 0.00 0.00 91 1021.9
20260509082315 8 211 0.0 0.0 0.00 0.00 0.00 91 1022.0
20260509082032 8 211 0.0 0.0 0.00 0.00 0.00 90 1021.9
20260509081311 8 211 0.0 0.0 0.00 0.00 0.00 90 1021.9
20260509080811 8 211 0.0 0.0 0.00 0.00 0.00 90 1021.9
20260509080305 8 211 0.0 0.0 0.00 0.00 0.00 89 1021.9
20260509075803 8 211 0.0 0.0 0.00 0.00 0.00 89 1021.9
20260509075306 9 211 0.0 0.0 0.00 0.00 0.00 89 1021.9
20260509074803 9 211 0.0 0.0 0.00 0.00 0.00 89 1021.8
20260509074530 9 211 0.0 0.0 0.00 0.00 0.00 88 1021.8
20260509073805 9 211 0.0 0.0 0.00 0.00 0.00 87 1021.7
20260509073304 9 211 0.0 0.0 0.00 0.00 0.00 88 1021.7
20260509072803 10 211 0.0 0.0 0.00 0.00 0.00 87 1021.7
20260509072532 10 211 0.0 0.0 0.00 0.00 0.00 87 1021.7
20260509071759 10 211 0.0 0.0 0.00 0.00 0.00 87 1021.7
20260509071307 10 211 0.0 0.0 0.00 0.00 0.00 87 1021.7
20260509070804 10 211 0.0 0.0 0.00 0.00 0.00 87 1021.6
20260509070258 10 211 0.0 0.0 0.00 0.00 0.00 87 1021.6
20260509065755 10 211 0.0 0.0 0.00 0.00 0.00 87 1021.6
20260509065246 10 211 0.0 0.0 0.00 0.00 0.00 87 1021.6
20260509064740 10 211 0.0 0.0 0.00 0.00 0.00 87 1021.6
20260509064235 10 211 0.0 0.0 0.00 0.00 0.00 87 1021.6
20260509063730 10 211 0.0 0.0 0.00 0.00 0.00 87 1021.6
20260509063219 10 211 0.0 0.0 0.00 0.00 0.00 87 1021.5
20260509062934 10 211 0.0 0.0 0.00 0.00 0.00 87 1021.5
20260509062210 10 211 0.0 0.0 0.00 0.00 0.00 87 1021.4
20260509061703 10 211 0.0 0.0 0.00 0.00 0.00 86 1021.4
20260509061158 10 211 0.0 0.0 0.00 0.00 0.00 86 1021.4
20260509060653 10 211 0.0 0.0 0.00 0.00 0.00 86 1021.3
20260509060143 10 211 0.0 0.0 0.00 0.00 0.00 86 1021.3
20260509055642 11 211 0.0 0.0 0.00 0.00 0.00 85 1021.3
20260509055135 10 211 0.0 0.0 0.00 0.00 0.00 86 1021.3
20260509054628 11 211 0.0 0.0 0.00 0.00 0.00 86 1021.3
20260509054123 11 211 0.0 0.0 0.00 0.00 0.00 86 1021.3
20260509053618 11 211 0.0 0.0 0.00 0.00 0.00 86 1021.3
20260509053110 11 211 0.0 0.0 0.00 0.00 0.00 86 1021.3
20260509052604 11 211 0.0 0.0 0.00 0.00 0.00 85 1021.3
20260509052058 11 211 0.0 0.0 0.00 0.00 0.00 85 1021.2
20260509051555 11 211 0.0 0.0 0.00 0.00 0.00 85 1021.1
20260509051046 11 211 0.0 0.0 0.00 0.00 0.00 85 1021.2
20260509050541 11 211 0.0 0.0 0.00 0.00 0.00 84 1021.1
20260509050031 11 211 0.0 0.0 0.00 0.00 0.00 85 1021.1
20260509045531 11 211 0.0 0.0 0.00 0.00 0.00 84 1021.1
20260509045022 11 211 0.0 0.0 0.00 0.00 0.00 84 1021.1
20260509044516 11 211 0.0 0.0 0.00 0.00 0.00 84 1021.2
20260509044010 11 211 0.0 0.0 0.00 0.00 0.00 84 1021.0
20260509043502 11 211 0.0 0.0 0.00 0.00 0.00 84 1021.0
20260509042958 11 211 0.0 0.0 0.00 0.00 0.00 83 1021.0
20260509042451 11 211 0.0 0.0 0.00 0.00 0.00 83 1020.9
20260509041946 11 211 0.0 0.0 0.00 0.00 0.00 82 1020.8
20260509041442 11 211 0.0 0.0 0.00 0.00 0.00 82 1020.8
20260509040934 11 211 0.0 0.0 0.00 0.00 0.00 82 1020.7
20260509040430 11 211 0.0 0.0 0.00 0.00 0.00 81 1020.6
20260509040139 12 211 0.0 0.0 0.00 0.00 0.00 81 1020.5
20260509035419 12 211 0.0 0.0 0.00 0.00 0.00 80 1020.5
20260509034910 12 211 0.0 0.0 0.00 0.00 0.00 79 1020.5
20260509034404 12 211 0.0 0.0 0.00 0.00 0.00 79 1020.4
20260509033854 12 211 0.0 0.0 0.00 0.00 0.00 79 1020.4
20260509033354 12 211 0.0 0.0 0.00 0.00 0.00 78 1020.3
20260509032843 12 211 0.0 0.0 0.00 0.00 0.00 78 1020.3
20260509032337 12 211 0.0 0.0 0.00 0.00 0.00 78 1020.3
20260509031834 13 211 0.0 0.0 0.00 0.00 0.00 77 1020.2
20260509031330 13 212 0.0 0.0 0.00 0.00 0.00 77 1020.1
20260509030822 13 212 0.0 0.0 0.00 0.00 0.00 76 1020.2
20260509030318 13 212 0.0 0.0 0.00 0.00 0.00 75 1020.1
20260509030024 13 212 0.0 0.0 0.00 0.00 0.00 74 1020.1
20260509025533 13 212 0.0 0.0 0.00 0.00 0.00 72 1020.1
20260509024759 14 212 0.0 0.0 0.00 0.00 0.00 73 1020.1
20260509024255 14 212 0.0 0.0 0.00 0.00 0.00 72 1020.1
20260509023753 14 212 0.0 0.0 0.00 0.00 0.00 72 1020.0
20260509023255 15 212 0.0 0.0 0.00 0.00 0.00 69 1019.9
20260509022753 15 212 0.0 0.0 0.00 0.00 0.00 67 1019.9
20260509022251 15 212 0.0 0.0 0.00 0.00 0.00 63 1019.9
20260509021751 15 212 0.0 0.0 0.00 0.00 0.00 64 1019.9
20260509021510 15 336 0.0 0.0 0.00 0.00 0.00 64 1019.9
20260509020753 15 336 0.0 0.0 0.00 0.00 0.00 63 1019.9
20260509020252 15 336 0.0 0.0 0.00 0.00 0.00 60 1019.8
20260509015752 15 337 0.0 0.0 0.00 0.00 0.00 61 1019.9
20260509015512 15 337 0.0 0.0 0.00 0.00 0.00 60 1019.8
20260509014748 15 105 0.0 0.0 0.00 0.00 0.00 59 1019.8
20260509014247 15 48 0.0 0.0 0.00 0.00 0.00 62 1019.9
20260509013747 15 48 0.0 0.0 0.00 0.00 0.00 63 1019.9
20260509013246 15 48 0.0 0.0 0.00 0.00 0.00 63 1019.9
20260509012748 15 48 0.0 0.0 0.00 0.00 0.00 62 1019.8
20260509012249 15 48 0.0 0.0 0.00 0.00 0.00 61 1019.9
20260509011746 15 331 0.0 0.0 0.00 0.00 0.00 62 1019.9
20260509011249 15 331 0.0 0.0 0.00 0.00 0.00 60 1019.9
20260509010743 15 316 0.0 0.0 0.00 0.00 0.00 60 1019.9
20260509010244 15 316 0.0 0.0 0.00 0.00 0.00 61 1019.9
20260509005742 15 316 0.0 0.0 0.00 0.00 0.00 61 1020.0
20260509005245 15 113 0.0 0.0 0.00 0.00 0.00 61 1019.9
20260509004742 15 49 0.0 0.0 0.00 0.00 0.00 58 1019.9
20260509004241 15 49 0.0 0.0 0.00 0.00 0.00 57 1019.9
20260509003748 16 49 0.0 0.0 0.00 0.00 0.00 57 1019.9
20260509003243 16 150 0.0 0.0 0.00 0.00 0.00 59 1019.9
20260509002741 16 150 0.0 0.0 0.00 0.00 0.00 58 1019.8
20260509002238 16 150 0.0 0.0 0.00 0.00 0.00 60 1019.8
20260509001741 15 152 0.0 0.0 0.00 0.00 0.00 58 1019.8
20260509001239 15 105 0.0 0.0 0.00 0.00 0.00 61 1019.8
20260509000740 15 105 0.0 0.0 0.00 0.00 0.00 59 1019.8
20260509000241 15 107 0.0 0.0 0.00 0.00 0.00 61 1019.8
20260508235740 15 107 0.0 0.0 0.00 0.00 0.00 65 1019.8
20260508235237 15 74 0.0 0.0 0.00 0.00 0.00 58 1019.8
20260508234745 15 334 0.0 0.0 0.00 0.00 0.00 65 1019.8
20260508234238 16 334 0.0 0.0 0.00 0.00 0.00 60 1019.9
20260508233732 16 334 0.0 0.0 0.00 0.00 0.00 61 1019.9
20260508233225 16 310 0.0 0.0 0.00 0.00 0.00 59 1019.9
20260508232721 16 349 0.0 0.0 0.00 0.00 0.00 60 1019.9
20260508232209 16 20 0.0 0.0 0.00 0.00 0.00 60 1019.9
20260508231707 16 70 0.0 0.0 0.00 0.00 0.00 63 1019.9
20260508231201 16 70 0.0 0.0 0.00 0.00 0.00 59 1019.8
20260508230657 16 330 0.0 0.0 0.00 0.00 0.00 62 1019.9
20260508230149 16 339 0.0 0.0 0.00 0.00 0.00 61 1019.9
20260508225643 16 318 0.0 0.0 0.00 0.00 0.00 60 1019.9
20260508225403 16 318 0.0 0.0 0.00 0.00 0.00 61 1020.0
20260508224630 16 345 0.0 0.0 0.00 0.00 0.00 58 1019.9
20260508224122 16 319 0.0 0.0 0.00 0.00 0.00 61 1019.9
20260508223619 16 45 0.0 0.0 0.00 0.00 0.00 61 1020.0
20260508223114 16 261 0.0 0.0 0.00 0.00 0.00 62 1020.0
20260508222610 16 280 0.0 0.0 0.00 0.00 0.00 62 1019.9
20260508222325 16 9 0.0 0.0 0.00 0.00 0.00 62 1019.8
20260508221556 15 38 0.0 0.0 0.00 0.00 0.00 60 1019.8
20260508221049 16 351 0.0 0.0 0.00 0.00 0.00 61 1020.0
20260508220545 15 355 0.0 0.0 0.00 0.00 0.00 63 1020.0
20260508220037 15 5 0.0 0.0 0.00 0.00 0.00 63 1020.0
20260508215531 15 10 0.0 0.0 0.00 0.00 0.00 67 1019.9
20260508215503 15 10 0.0 0.0 0.00 0.00 0.00 66 1020.0
20260508214753 15 348 0.0 0.0 0.00 0.00 0.00 65 1020.0
20260508214013 14 276 0.0 0.0 0.00 0.00 0.00 65 1020.1
20260508213507 14 63 0.0 0.0 0.00 0.00 0.00 66 1020.0
20260508213001 14 63 0.0 0.0 0.00 0.00 0.00 66 1020.1
20260508212454 15 0 0.0 0.0 0.00 0.00 0.00 64 1020.1
20260508211949 15 355 0.0 0.0 0.00 0.00 0.00 67 1020.1
20260508211705 14 335 0.0 0.0 0.00 0.00 0.00 69 1020.1
20260508211204 14 225 0.0 0.0 0.00 0.00 0.00 67 1020.2
20260508210434 14 262 0.0 0.0 0.00 0.00 0.00 67 1020.2
20260508205935 14 74 0.0 0.0 0.00 0.00 0.00 69 1020.3
20260508205434 14 333 0.0 0.0 0.00 0.00 0.00 70 1020.3
20260508204933 14 15 0.0 0.0 0.00 0.00 0.00 72 1020.2
20260508204433 14 279 0.0 9.7 0.00 0.00 0.00 69 1020.2
20260508203931 14 288 0.0 9.7 0.00 0.00 0.00 69 1020.1
20260508203431 15 5 0.0 0.0 0.00 0.00 0.00 67 1020.1
20260508202932 15 178 0.0 0.0 0.00 0.00 0.00 69 1020.1
20260508202431 15 293 0.0 0.0 0.00 0.00 0.00 70 1020.1
20260508201928 15 5 0.0 0.0 0.00 0.00 0.00 69 1019.9
20260508201701 14 296 0.0 0.0 0.00 0.00 0.00 74 1019.8
20260508200926 14 303 0.0 0.0 0.00 0.00 0.00 73 1019.9
20260508200426 13 274 0.0 8.0 0.00 0.00 0.00 74 1019.9
20260508195941 13 287 0.0 4.8 0.00 0.00 0.00 77 1020.1
20260508195930 13 325 0.0 8.0 0.00 0.00 0.00 73 1020.0